Location: Wildlife_Club
(35.6000°N, 81.4330°W)
Time: 21:51:56
(UTC-04:00)

Tiros 1 - All Passes

Search period start: 16 June 2019 00:00
Search period end: 26 June 2019 00:00
Orbit: 631 x 664 km, 48.4° (Epoch: 16 June)

Date Brightness Start Highest point End Pass type
(mag) Time Alt. Az. Time Alt. Az. Time Alt. Az.
16 Jun - 01:03:48 10° S 01:07:10 20° SE 01:10:32 10° E visible
16 Jun - 02:44:21 10° WSW 02:49:00 68° NW 02:53:37 10° NE visible
16 Jun - 04:28:14 10° WNW 04:31:49 21° NNW 04:35:24 10° NE visible
16 Jun - 06:12:19 10° NW 06:15:20 17° N 06:18:20 10° NE daylight
16 Jun - 07:54:25 10° NW 07:58:36 33° NNE 08:02:47 10° E daylight
16 Jun - 09:36:27 10° WNW 09:40:57 53° SW 09:45:28 10° SE daylight
17 Jun - 01:28:29 10° SSW 01:32:59 48° SE 01:37:27 10° ENE visible
17 Jun - 03:11:00 10° W 03:15:17 35° NNW 03:19:32 10° NE visible
17 Jun - 04:55:27 10° NW 04:58:31 17° N 05:01:34 10° NE visible
17 Jun - 06:38:33 10° NW 06:42:02 21° NNE 06:45:31 10° ENE daylight
17 Jun - 08:20:20 10° NW 08:24:55 62° NNE 08:29:30 10° ESE daylight
17 Jun - 10:03:14 10° W 10:06:47 22° SW 10:10:20 10° S daylight
18 Jun - 00:14:03 10° S 00:17:13 18° SE 00:20:23 10° E night (unlit)
18 Jun - 01:54:20 10° WSW 01:59:01 74° NW 02:03:39 10° NE visible
18 Jun - 03:38:07 10° WNW 03:41:47 22° NNW 03:45:26 10° NE visible
18 Jun - 05:22:17 10° NW 05:25:17 17° N 05:28:15 10° NE visible
18 Jun - 07:04:28 10° NW 07:08:35 31° NNE 07:12:42 10° E daylight
18 Jun - 08:46:26 10° WNW 08:50:59 59° SW 08:55:31 10° SE daylight
19 Jun - 00:38:34 10° SSW 00:43:01 44° SE 00:47:26 10° ENE visible
19 Jun - 02:20:55 10° W 02:25:16 37° NNW 02:29:35 10° NE visible
19 Jun - 04:05:21 10° NW 04:08:27 17° N 04:11:33 10° NE visible
19 Jun - 05:48:34 10° NW 05:52:00 20° NNE 05:55:25 10° ENE daylight
19 Jun - 07:30:22 10° NW 07:34:55 57° NNE 07:39:28 10° ESE daylight
19 Jun - 09:13:09 10° W 09:16:50 24° SW 09:20:32 10° S daylight
19 Jun - 23:24:20 10° S 23:27:17 17° SE 23:30:12 10° E night (unlit)
20 Jun - 01:04:19 10° SW 01:09:01 80° NW 01:13:41 10° NE visible
20 Jun - 02:47:59 10° WNW 02:51:45 23° NNW 02:55:28 10° NE visible
20 Jun - 04:32:15 10° NW 04:35:13 16° N 04:38:11 10° NE visible
20 Jun - 06:14:30 10° NW 06:18:34 29° NNE 06:22:37 10° E daylight
20 Jun - 07:56:26 10° WNW 08:01:01 64° SW 08:05:35 10° SE daylight
20 Jun - 23:48:39 10° SSW 23:53:02 40° SE 23:57:25 10° ENE visible
21 Jun - 01:30:50 10° W 01:35:15 40° NNW 01:39:38 10° NE visible
21 Jun - 03:15:15 10° NW 03:18:24 18° N 03:21:34 10° NE visible
21 Jun - 04:58:35 10° NW 05:01:57 19° NNE 05:05:19 10° ENE visible
21 Jun - 06:40:24 10° NW 06:44:56 53° NNE 06:49:27 10° ESE daylight
21 Jun - 08:23:03 10° WNW 08:26:53 26° SW 08:30:43 10° S daylight
21 Jun - 22:34:39 10° SSE 22:37:20 15° SE 22:39:59 10° E night (unlit)
22 Jun - 00:14:18 10° SW 00:19:01 87° NW 00:23:43 10° NE visible
22 Jun - 01:57:53 10° WNW 02:01:42 24° NNW 02:05:31 10° NE visible
22 Jun - 03:42:12 10° NW 03:45:10 16° N 03:48:08 10° NE visible
22 Jun - 05:24:32 10° NW 05:28:33 28° NNE 05:32:32 10° E visible
22 Jun - 07:06:26 10° WNW 07:11:03 70° SW 07:15:38 10° SE daylight
22 Jun - 22:58:45 10° SSW 23:03:04 37° SE 23:07:23 10° ENE visible
23 Jun - 00:40:45 10° W 00:45:14 42° NNW 00:49:41 10° NE visible
23 Jun - 02:25:08 10° NW 02:28:21 18° N 02:31:34 10° NE visible
23 Jun - 04:08:35 10° NW 04:11:54 19° NNE 04:15:13 10° ENE visible
23 Jun - 05:50:25 10° NW 05:54:56 49° NNE 05:59:25 10° ESE daylight
23 Jun - 07:32:58 10° WNW 07:36:56 29° SW 07:40:54 10° SSE daylight
23 Jun - 21:45:02 10° SSE 21:47:23 14° SE 21:49:42 10° E visible
23 Jun - 23:24:18 10° SW 23:29:02 87° SE 23:33:44 10° NE visible
24 Jun - 01:07:45 10° WNW 01:11:40 25° NNW 01:15:33 10° NE visible
24 Jun - 02:52:08 10° NW 02:55:06 16° N 02:58:05 10° NE visible
24 Jun - 04:34:34 10° NW 04:38:31 27° NNE 04:42:27 10° E visible
24 Jun - 06:16:27 10° NW 06:21:05 77° SW 06:25:40 10° SE daylight
24 Jun - 08:01:16 10° WSW 08:02:38 11° SW 08:03:59 10° SW daylight
24 Jun - 22:08:51 10° SSW 22:13:07 33° SE 22:17:20 10° ENE visible
24 Jun - 23:50:41 10° WSW 23:55:13 45° NNW 23:59:43 10° NE visible
25 Jun - 01:35:01 10° NW 01:38:17 19° N 01:41:35 10° NE visible
25 Jun - 03:18:34 10° NW 03:21:51 19° N 03:25:08 10° NE visible
25 Jun - 05:00:27 10° NW 05:04:55 46° NNE 05:09:22 10° ESE visible
25 Jun - 06:42:54 10° WNW 06:46:59 31° SW 06:51:04 10° SSE daylight
25 Jun - 20:55:30 10° SSE 20:57:26 12° SE 20:59:21 10° ESE daylight
25 Jun - 22:34:18 10° SW 22:39:02 80° SE 22:43:45 10° NE visible
